Time,TemperatureF,DewpointF,PressureIn,WindDirection,WindDirectionDegrees,WindSpeedMPH,WindSpeedGustMPH,Humidity,HourlyPrecipIn,Conditions,Clouds,dailyrainin,SoftwareType,DateUTC
2013-03-01 00:00:00,36.0,30.0,29.65,SSW,209,5.0,9.0,80,-99.99,,,-99.99,,2013-03-01 05:00:00,
2013-03-01 00:22:00,36.0,30.0,29.65,SSW,209,5.0,9.0,80,-99.99,,,-99.99,,2013-03-01 05:22:00,
2013-03-01 00:33:00,36.0,30.0,29.65,SSW,209,5.0,9.0,80,-99.99,,,-99.99,,2013-03-01 05:33:00,
2013-03-01 00:42:00,36.0,30.0,29.65,SSW,209,5.0,9.0,80,-99.99,,,-99.99,,2013-03-01 05:42:00,
2013-03-01 00:53:00,36.0,30.0,29.65,SSW,209,5.0,9.0,80,-99.99,,,-99.99,,2013-03-01 05:53:00,
2013-03-01 01:00:00,34.0,29.0,29.65,SSW,212,4.0,10.0,82,-99.99,,,-99.99,,2013-03-01 06:00:00,
2013-03-01 01:22:00,34.0,29.0,29.65,SSW,212,4.0,10.0,82,-99.99,,,-99.99,,2013-03-01 06:22:00,
2013-03-01 01:32:00,34.0,29.0,29.65,SSW,212,4.0,10.0,82,-99.99,,,-99.99,,2013-03-01 06:32:00,
2013-03-01 01:42:00,34.0,29.0,29.65,SSW,212,4.0,10.0,82,-99.99,,,-99.99,,2013-03-01 06:42:00,
2013-03-01 01:53:00,34.0,29.0,29.65,SSW,212,4.0,10.0,82,-99.99,,,-99.99,,2013-03-01 06:53:00,
2013-03-01 02:00:00,35.0,30.0,29.65,SW,214,2.0,10.0,80,-99.99,,,-99.99,,2013-03-01 07:00:00,
2013-03-01 02:22:00,35.0,30.0,29.65,SW,214,2.0,10.0,80,-99.99,,,-99.99,,2013-03-01 07:22:00,
2013-03-01 02:33:00,35.0,30.0,29.65,SW,214,2.0,10.0,80,-99.99,,,-99.99,,2013-03-01 07:33:00,
2013-03-01 02:42:00,35.0,30.0,29.65,SW,214,2.0,10.0,80,-99.99,,,-99.99,,2013-03-01 07:42:00,
2013-03-01 02:52:00,35.0,30.0,29.65,SW,214,2.0,10.0,80,-99.99,,,-99.99,,2013-03-01 07:52:00,
2013-03-01 04:00:00,34.0,29.0,29.65,SW,227,3.0,10.0,82,-99.99,,,-99.99,,2013-03-01 09:00:00,
2013-03-01 04:22:00,34.0,29.0,29.65,SW,227,3.0,10.0,82,-99.99,,,-99.99,,2013-03-01 09:22:00,
2013-03-01 04:32:00,34.0,29.0,29.65,SW,227,3.0,10.0,82,-99.99,,,-99.99,,2013-03-01 09:32:00,
2013-03-01 04:42:00,34.0,29.0,29.65,SW,227,3.0,10.0,82,-99.99,,,-99.99,,2013-03-01 09:42:00,
2013-03-01 04:53:00,34.0,29.0,29.65,SW,227,3.0,10.0,82,-99.99,,,-99.99,,2013-03-01 09:53:00,
2013-03-01 05:00:00,34.0,29.0,29.68,West,272,8.0,10.0,83,-99.99,,,-99.99,,2013-03-01 10:00:00,
2013-03-01 05:22:00,34.0,29.0,29.68,West,272,8.0,10.0,83,-99.99,,,-99.99,,2013-03-01 10:22:00,
2013-03-01 05:32:00,34.0,29.0,29.68,West,272,8.0,10.0,83,-99.99,,,-99.99,,2013-03-01 10:32:00,
2013-03-01 05:42:00,34.0,29.0,29.68,West,272,8.0,10.0,83,-99.99,,,-99.99,,2013-03-01 10:42:00,
2013-03-01 05:53:00,34.0,29.0,29.68,West,272,8.0,10.0,83,-99.99,,,-99.99,,2013-03-01 10:53:00,
2013-03-01 06:00:00,33.0,29.0,29.68,West,279,4.0,11.0,84,-99.99,,,-99.99,,2013-03-01 11:00:00,
2013-03-01 06:23:00,33.0,29.0,29.68,West,279,4.0,11.0,84,-99.99,,,-99.99,,2013-03-01 11:23:00,
2013-03-01 06:32:00,33.0,29.0,29.68,West,279,4.0,11.0,84,-99.99,,,-99.99,,2013-03-01 11:32:00,
2013-03-01 06:42:00,33.0,29.0,29.68,West,279,4.0,11.0,84,-99.99,,,-99.99,,2013-03-01 11:42:00,
2013-03-01 06:53:00,33.0,29.0,29.68,West,279,4.0,11.0,84,-99.99,,,-99.99,,2013-03-01 11:53:00,
2013-03-01 07:00:00,33.0,29.0,29.68,WNW,284,4.0,11.0,84,-99.99,,,-99.99,,2013-03-01 12:00:00,
2013-03-01 07:33:00,33.0,29.0,29.68,WNW,284,4.0,11.0,84,-99.99,,,-99.99,,2013-03-01 12:33:00,
2013-03-01 07:42:00,33.0,29.0,29.68,WNW,284,4.0,11.0,84,-99.99,,,-99.99,,2013-03-01 12:42:00,
2013-03-01 07:52:00,33.0,29.0,29.68,WNW,284,4.0,11.0,84,-99.99,,,-99.99,,2013-03-01 12:52:00,
2013-03-01 08:00:00,38.0,30.0,29.74,WNW,284,3.0,8.0,75,-99.99,,,-99.99,,2013-03-01 13:00:00,
2013-03-01 08:22:00,38.0,30.0,29.74,WNW,284,3.0,8.0,75,-99.99,,,-99.99,,2013-03-01 13:22:00,
2013-03-01 08:32:00,38.0,30.0,29.74,WNW,284,3.0,8.0,75,-99.99,,,-99.99,,2013-03-01 13:32:00,
2013-03-01 08:42:00,38.0,30.0,29.74,WNW,284,3.0,8.0,75,-99.99,,,-99.99,,2013-03-01 13:42:00,
2013-03-01 08:52:00,38.0,30.0,29.74,WNW,284,3.0,8.0,75,-99.99,,,-99.99,,2013-03-01 13:52:00,
2013-03-01 09:00:00,42.0,31.0,29.74,West,275,1.0,11.0,64,-99.99,,,-99.99,,2013-03-01 14:00:00,
2013-03-01 09:22:00,42.0,31.0,29.74,West,275,1.0,11.0,64,-99.99,,,-99.99,,2013-03-01 14:22:00,
2013-03-01 09:32:00,42.0,31.0,29.74,West,275,1.0,11.0,64,-99.99,,,-99.99,,2013-03-01 14:32:00,
2013-03-01 09:42:00,42.0,31.0,29.74,West,275,1.0,11.0,64,-99.99,,,-99.99,,2013-03-01 14:42:00,
2013-03-01 09:52:00,42.0,31.0,29.74,West,275,1.0,11.0,64,-99.99,,,-99.99,,2013-03-01 14:52:00,
2013-03-01 10:00:00,43.0,28.0,29.74,West,279,10.0,21.0,55,-99.99,,,-99.99,,2013-03-01 15:00:00,
2013-03-01 10:21:00,43.0,28.0,29.74,West,279,10.0,21.0,55,-99.99,,,-99.99,,2013-03-01 15:21:00,
2013-03-01 10:32:00,43.0,28.0,29.74,West,279,10.0,21.0,55,-99.99,,,-99.99,,2013-03-01 15:32:00,
2013-03-01 10:42:00,43.0,28.0,29.74,West,279,10.0,21.0,55,-99.99,,,-99.99,,2013-03-01 15:42:00,
2013-03-01 10:52:00,43.0,28.0,29.74,West,279,10.0,21.0,55,-99.99,,,-99.99,,2013-03-01 15:52:00,
2013-03-01 11:00:00,43.0,27.0,29.71,NNW,345,8.0,17.0,52,-99.99,,,-99.99,,2013-03-01 16:00:00,
2013-03-01 11:22:00,43.0,27.0,29.71,NNW,345,8.0,17.0,52,-99.99,,,-99.99,,2013-03-01 16:22:00,
2013-03-01 11:32:00,43.0,27.0,29.71,NNW,345,8.0,17.0,52,-99.99,,,-99.99,,2013-03-01 16:32:00,
2013-03-01 11:42:00,43.0,27.0,29.71,NNW,345,8.0,17.0,52,-99.99,,,-99.99,,2013-03-01 16:42:00,
2013-03-01 11:52:00,43.0,27.0,29.71,NNW,345,8.0,17.0,52,-99.99,,,-99.99,,2013-03-01 16:52:00,
2013-03-01 12:00:00,44.0,25.0,29.74,NNW,336,10.0,13.0,47,-99.99,,,-99.99,,2013-03-01 17:00:00,
2013-03-01 12:21:00,44.0,25.0,29.74,NNW,336,10.0,13.0,47,-99.99,,,-99.99,,2013-03-01 17:21:00,
2013-03-01 12:32:00,44.0,25.0,29.74,NNW,336,10.0,13.0,47,-99.99,,,-99.99,,2013-03-01 17:32:00,
2013-03-01 12:42:00,44.0,25.0,29.74,NNW,336,10.0,13.0,47,-99.99,,,-99.99,,2013-03-01 17:42:00,
2013-03-01 12:52:00,44.0,25.0,29.74,NNW,336,10.0,13.0,47,-99.99,,,-99.99,,2013-03-01 17:52:00,
2013-03-01 13:00:00,44.0,26.0,29.71,SSE,147,5.0,12.0,50,-99.99,,,-99.99,,2013-03-01 18:00:00,
2013-03-01 13:22:00,44.0,26.0,29.71,SSE,147,5.0,12.0,50,-99.99,,,-99.99,,2013-03-01 18:22:00,
2013-03-01 13:32:00,44.0,26.0,29.71,SSE,147,5.0,12.0,50,-99.99,,,-99.99,,2013-03-01 18:32:00,
2013-03-01 13:42:00,44.0,26.0,29.71,SSE,147,5.0,12.0,50,-99.99,,,-99.99,,2013-03-01 18:42:00,
2013-03-01 13:52:00,44.0,26.0,29.71,SSE,147,5.0,12.0,50,-99.99,,,-99.99,,2013-03-01 18:52:00,
2013-03-01 15:00:00,43.0,27.0,29.71,NNE,27,4.0,12.0,54,-99.99,,,-99.99,,2013-03-01 20:00:00,
2013-03-01 15:22:00,43.0,27.0,29.71,NNE,27,4.0,12.0,54,-99.99,,,-99.99,,2013-03-01 20:22:00,
2013-03-01 15:32:00,43.0,27.0,29.71,NNE,27,4.0,12.0,54,-99.99,,,-99.99,,2013-03-01 20:32:00,
2013-03-01 15:42:00,43.0,27.0,29.71,NNE,27,4.0,12.0,54,-99.99,,,-99.99,,2013-03-01 20:42:00,
2013-03-01 15:52:00,43.0,27.0,29.71,NNE,27,4.0,12.0,54,-99.99,,,-99.99,,2013-03-01 20:52:00,
2013-03-01 16:00:00,43.0,28.0,29.71,ESE,118,5.0,12.0,55,-99.99,,,-99.99,,2013-03-01 21:00:00,
2013-03-01 16:22:00,43.0,28.0,29.71,ESE,118,5.0,12.0,55,-99.99,,,-99.99,,2013-03-01 21:22:00,
2013-03-01 16:32:00,43.0,28.0,29.71,ESE,118,5.0,12.0,55,-99.99,,,-99.99,,2013-03-01 21:32:00,
2013-03-01 16:42:00,43.0,28.0,29.71,ESE,118,5.0,12.0,55,-99.99,,,-99.99,,2013-03-01 21:42:00,
2013-03-01 16:52:00,43.0,28.0,29.71,ESE,118,5.0,12.0,55,-99.99,,,-99.99,,2013-03-01 21:52:00,
2013-03-01 17:00:00,42.0,27.0,29.74,NNW,347,3.0,11.0,54,-99.99,,,-99.99,,2013-03-01 22:00:00,
2013-03-01 17:22:00,42.0,27.0,29.74,NNW,347,3.0,11.0,54,-99.99,,,-99.99,,2013-03-01 22:22:00,
2013-03-01 17:32:00,42.0,27.0,29.74,NNW,347,3.0,11.0,54,-99.99,,,-99.99,,2013-03-01 22:32:00,
2013-03-01 17:42:00,42.0,27.0,29.74,NNW,347,3.0,11.0,54,-99.99,,,-99.99,,2013-03-01 22:42:00,
2013-03-01 17:52:00,42.0,27.0,29.74,NNW,347,3.0,11.0,54,-99.99,,,-99.99,,2013-03-01 22:52:00,
2013-03-01 18:00:00,42.0,28.0,29.74,NNE,33,3.0,11.0,57,-99.99,,,-99.99,,2013-03-01 23:00:00,
2013-03-01 18:21:00,42.0,28.0,29.74,NNE,33,3.0,11.0,57,-99.99,,,-99.99,,2013-03-01 23:21:00,
2013-03-01 18:32:00,42.0,28.0,29.74,NNE,33,3.0,11.0,57,-99.99,,,-99.99,,2013-03-01 23:32:00,
2013-03-01 18:42:00,42.0,28.0,29.74,NNE,33,3.0,11.0,57,-99.99,,,-99.99,,2013-03-01 23:42:00,
2013-03-01 18:52:00,42.0,28.0,29.74,NNE,33,3.0,11.0,57,-99.99,,,-99.99,,2013-03-01 23:52:00,
2013-03-01 19:00:00,41.0,27.0,29.77,SE,128,3.0,11.0,57,-99.99,,,-99.99,,2013-03-02 00:00:00,
2013-03-01 19:32:00,41.0,27.0,29.77,SE,128,3.0,11.0,57,-99.99,,,-99.99,,2013-03-02 00:32:00,
2013-03-01 19:42:00,41.0,27.0,29.77,SE,128,3.0,11.0,57,-99.99,,,-99.99,,2013-03-02 00:42:00,
2013-03-01 19:52:00,41.0,27.0,29.77,SE,128,3.0,11.0,57,-99.99,,,-99.99,,2013-03-02 00:52:00,
2013-03-01 20:00:00,40.0,27.0,29.77,SE,143,1.0,12.0,59,-99.99,,,-99.99,,2013-03-02 01:00:00,
2013-03-01 20:21:00,40.0,27.0,29.77,SE,143,1.0,12.0,59,-99.99,,,-99.99,,2013-03-02 01:21:00,
2013-03-01 20:32:00,40.0,27.0,29.77,SE,143,1.0,12.0,59,-99.99,,,-99.99,,2013-03-02 01:32:00,
2013-03-01 20:42:00,40.0,27.0,29.77,SE,143,1.0,12.0,59,-99.99,,,-99.99,,2013-03-02 01:42:00,
2013-03-01 20:52:00,40.0,27.0,29.77,SE,143,1.0,12.0,59,-99.99,,,-99.99,,2013-03-02 01:52:00,
2013-03-01 21:00:00,40.0,27.0,29.77,SSE,164,6.0,11.0,60,-99.99,,,-99.99,,2013-03-02 02:00:00,
2013-03-01 21:22:00,40.0,27.0,29.77,SSE,164,6.0,11.0,60,-99.99,,,-99.99,,2013-03-02 02:22:00,
2013-03-01 21:32:00,40.0,27.0,29.77,SSE,164,6.0,11.0,60,-99.99,,,-99.99,,2013-03-02 02:32:00,
2013-03-01 21:42:00,40.0,27.0,29.77,SSE,164,6.0,11.0,60,-99.99,,,-99.99,,2013-03-02 02:42:00,
2013-03-01 21:52:00,40.0,27.0,29.77,SSE,164,6.0,11.0,60,-99.99,,,-99.99,,2013-03-02 02:52:00,
2013-03-01 22:00:00,40.0,26.0,29.80,South,170,2.0,10.0,58,-99.99,,,-99.99,,2013-03-02 03:00:00,
2013-03-01 22:22:00,40.0,26.0,29.80,South,170,2.0,10.0,58,-99.99,,,-99.99,,2013-03-02 03:22:00,
2013-03-01 22:32:00,40.0,26.0,29.80,South,170,2.0,10.0,58,-99.99,,,-99.99,,2013-03-02 03:32:00,
2013-03-01 22:42:00,40.0,26.0,29.80,South,170,2.0,10.0,58,-99.99,,,-99.99,,2013-03-02 03:42:00,
2013-03-01 22:52:00,40.0,26.0,29.80,South,170,2.0,10.0,58,-99.99,,,-99.99,,2013-03-02 03:52:00,
2013-03-01 23:00:00,37.0,25.0,29.80,South,169,5.0,11.0,61,-99.99,,,-99.99,,2013-03-02 04:00:00,
2013-03-01 23:32:00,37.0,25.0,29.80,South,169,5.0,11.0,61,-99.99,,,-99.99,,2013-03-02 04:32:00,
2013-03-01 23:42:00,37.0,25.0,29.80,South,169,5.0,11.0,61,-99.99,,,-99.99,,2013-03-02 04:42:00,
2013-03-01 23:52:00,37.0,25.0,29.80,South,169,5.0,11.0,61,-99.99,,,-99.99,,2013-03-02 04:52:00,